| time (UTC) | temp F | wind direction | speed MPH | gust MPH | rain 1hr in | rain 24hr in | rain mn in | humidity % | barometer mb |
| 20260503001936 | 62 | 359 | 0.0 | 0.0 | 0.00 | 0.00 | 0.00 | 46 | 1022.8 |
| 20260503001436 | 62 | 359 | 0.0 | 0.0 | 0.00 | 0.00 | 0.00 | 46 | 1022.8 |
| 20260503000942 | 61 | 359 | 0.0 | 0.0 | 0.00 | 0.00 | 0.00 | 47 | 1022.8 |
| 20260503000445 | 61 | 359 | 0.0 | 0.0 | 0.00 | 0.00 | 0.00 | 47 | 1022.8 |
| 20260502235936 | 61 | 359 | 0.0 | 0.0 | 0.00 | 0.00 | 0.00 | 47 | 1022.8 |
| 20260502235439 | 61 | 359 | 0.0 | 0.0 | 0.00 | 0.00 | 0.00 | 47 | 1022.8 |
| 20260502234936 | 62 | 359 | 0.0 | 0.0 | 0.00 | 0.00 | 0.00 | 47 | 1022.9 |
| 20260502234436 | 62 | 359 | 0.0 | 0.0 | 0.00 | 0.00 | 0.00 | 46 | 1023.0 |
| 20260502233936 | 62 | 359 | 0.0 | 0.0 | 0.00 | 0.00 | 0.00 | 46 | 1023.0 |
| 20260502233436 | 62 | 359 | 0.0 | 0.0 | 0.00 | 0.00 | 0.00 | 46 | 1023.0 |
| 20260502232939 | 62 | 359 | 0.0 | 0.0 | 0.00 | 0.00 | 0.00 | 46 | 1023.0 |
| 20260502232439 | 62 | 359 | 0.0 | 0.0 | 0.00 | 0.00 | 0.00 | 46 | 1023.1 |
| 20260502231940 | 62 | 359 | 0.0 | 0.0 | 0.00 | 0.00 | 0.00 | 46 | 1023.1 |
| 20260502231437 | 62 | 359 | 0.0 | 0.0 | 0.00 | 0.00 | 0.00 | 47 | 1023.2 |
| 20260502230942 | 62 | 359 | 0.0 | 0.0 | 0.00 | 0.00 | 0.00 | 47 | 1023.2 |
| 20260502230439 | 62 | 359 | 0.0 | 0.0 | 0.00 | 0.00 | 0.00 | 47 | 1023.3 |
| 20260502225937 | 63 | 359 | 0.0 | 0.0 | 0.00 | 0.00 | 0.00 | 47 | 1023.4 |
| 20260502225440 | 63 | 359 | 0.0 | 0.0 | 0.00 | 0.00 | 0.00 | 47 | 1023.4 |
| 20260502224937 | 62 | 359 | 0.0 | 0.0 | 0.00 | 0.00 | 0.00 | 47 | 1023.3 |
| 20260502224437 | 62 | 359 | 0.0 | 0.0 | 0.00 | 0.00 | 0.00 | 47 | 1023.4 |
| 20260502223940 | 62 | 359 | 0.0 | 0.0 | 0.00 | 0.00 | 0.00 | 47 | 1023.4 |
| 20260502223437 | 62 | 359 | 0.0 | 0.0 | 0.00 | 0.00 | 0.00 | 48 | 1023.4 |
| 20260502222937 | 62 | 359 | 0.0 | 0.0 | 0.00 | 0.00 | 0.00 | 48 | 1023.4 |
| 20260502222440 | 62 | 359 | 0.0 | 0.0 | 0.00 | 0.00 | 0.00 | 48 | 1023.4 |
| 20260502221937 | 62 | 359 | 0.0 | 0.0 | 0.00 | 0.00 | 0.00 | 48 | 1023.4 |
| 20260502221440 | 63 | 359 | 0.0 | 0.0 | 0.00 | 0.00 | 0.00 | 47 | 1023.5 |
| 20260502220940 | 63 | 359 | 0.0 | 0.0 | 0.00 | 0.00 | 0.00 | 48 | 1023.6 |
| 20260502220437 | 63 | 359 | 0.0 | 0.0 | 0.00 | 0.00 | 0.00 | 48 | 1023.7 |
| 20260502215937 | 63 | 359 | 0.0 | 0.0 | 0.00 | 0.00 | 0.00 | 48 | 1023.7 |
| 20260502215437 | 63 | 359 | 0.0 | 0.0 | 0.00 | 0.00 | 0.00 | 48 | 1023.7 |
| 20260502214937 | 63 | 359 | 0.0 | 0.0 | 0.00 | 0.00 | 0.00 | 48 | 1023.7 |
| 20260502214440 | 63 | 359 | 0.0 | 0.0 | 0.00 | 0.00 | 0.00 | 47 | 1023.7 |
| 20260502213943 | 63 | 359 | 0.0 | 0.0 | 0.00 | 0.00 | 0.00 | 47 | 1023.7 |
| 20260502213443 | 63 | 359 | 0.0 | 0.0 | 0.00 | 0.00 | 0.00 | 47 | 1023.7 |
| 20260502212937 | 63 | 359 | 0.0 | 0.0 | 0.00 | 0.00 | 0.00 | 47 | 1023.7 |
| 20260502212437 | 64 | 359 | 0.0 | 0.0 | 0.00 | 0.00 | 0.00 | 48 | 1023.8 |
| 20260502211937 | 63 | 359 | 0.0 | 0.0 | 0.00 | 0.00 | 0.00 | 48 | 1023.8 |
| 20260502211440 | 63 | 359 | 0.0 | 0.0 | 0.00 | 0.00 | 0.00 | 48 | 1023.8 |
| 20260502210937 | 63 | 359 | 0.0 | 0.0 | 0.00 | 0.00 | 0.00 | 48 | 1023.8 |
| 20260502210440 | 64 | 359 | 0.0 | 0.0 | 0.00 | 0.00 | 0.00 | 48 | 1023.8 |
| 20260502205937 | 64 | 359 | 0.0 | 0.0 | 0.00 | 0.00 | 0.00 | 48 | 1023.8 |
| 20260502205437 | 64 | 359 | 0.0 | 0.0 | 0.00 | 0.00 | 0.00 | 48 | 1023.8 |
| 20260502204937 | 64 | 359 | 0.0 | 0.0 | 0.00 | 0.00 | 0.00 | 48 | 1023.8 |
| 20260502204440 | 64 | 359 | 0.0 | 0.0 | 0.00 | 0.00 | 0.00 | 48 | 1023.8 |
| 20260502203943 | 64 | 359 | 0.0 | 0.0 | 0.00 | 0.00 | 0.00 | 48 | 1023.8 |
| 20260502203437 | 64 | 359 | 0.0 | 0.0 | 0.00 | 0.00 | 0.00 | 47 | 1023.9 |
| 20260502202937 | 64 | 359 | 0.0 | 0.0 | 0.00 | 0.00 | 0.00 | 47 | 1023.9 |
| 20260502202437 | 64 | 359 | 0.0 | 0.0 | 0.00 | 0.00 | 0.00 | 46 | 1023.9 |
| 20260502201937 | 65 | 359 | 0.0 | 0.0 | 0.00 | 0.00 | 0.00 | 45 | 1023.9 |
| 20260502201437 | 65 | 359 | 0.0 | 0.0 | 0.00 | 0.00 | 0.00 | 44 | 1023.9 |
| 20260502200937 | 65 | 359 | 0.0 | 0.0 | 0.00 | 0.00 | 0.00 | 44 | 1023.9 |
| 20260502200437 | 65 | 359 | 0.0 | 0.0 | 0.00 | 0.00 | 0.00 | 45 | 1023.9 |
| 20260502195937 | 65 | 359 | 0.0 | 0.0 | 0.00 | 0.00 | 0.00 | 44 | 1023.7 |
| 20260502195437 | 65 | 359 | 0.0 | 0.0 | 0.00 | 0.00 | 0.00 | 45 | 1023.7 |
| 20260502194940 | 65 | 359 | 0.0 | 0.0 | 0.00 | 0.00 | 0.00 | 44 | 1023.7 |
| 20260502194440 | 65 | 359 | 0.0 | 0.0 | 0.00 | 0.00 | 0.00 | 44 | 1023.6 |
| 20260502193937 | 65 | 359 | 0.0 | 0.0 | 0.00 | 0.00 | 0.00 | 44 | 1023.6 |
| 20260502193437 | 65 | 359 | 0.0 | 0.0 | 0.00 | 0.00 | 0.00 | 44 | 1023.5 |
| 20260502192937 | 65 | 359 | 0.0 | 0.0 | 0.00 | 0.00 | 0.00 | 44 | 1023.6 |
| 20260502192440 | 65 | 359 | 0.0 | 0.0 | 0.00 | 0.00 | 0.00 | 44 | 1023.6 |
| 20260502191937 | 65 | 359 | 0.0 | 0.0 | 0.00 | 0.00 | 0.00 | 43 | 1023.5 |
| 20260502191440 | 66 | 359 | 0.0 | 0.0 | 0.00 | 0.00 | 0.00 | 43 | 1023.5 |
| 20260502190937 | 66 | 359 | 0.0 | 0.0 | 0.00 | 0.00 | 0.00 | 42 | 1023.5 |
| 20260502190443 | 66 | 359 | 0.0 | 0.0 | 0.00 | 0.00 | 0.00 | 42 | 1023.4 |
| 20260502185940 | 66 | 359 | 0.0 | 0.0 | 0.00 | 0.00 | 0.00 | 41 | 1023.4 |
| 20260502185443 | 66 | 359 | 0.0 | 0.0 | 0.00 | 0.00 | 0.00 | 40 | 1023.4 |
| 20260502184940 | 66 | 359 | 0.0 | 0.0 | 0.00 | 0.00 | 0.00 | 41 | 1023.4 |
| 20260502184440 | 67 | 359 | 0.0 | 0.0 | 0.00 | 0.00 | 0.00 | 41 | 1023.3 |
| 20260502183937 | 67 | 359 | 0.0 | 0.0 | 0.00 | 0.00 | 0.00 | 42 | 1023.4 |
| 20260502183440 | 67 | 359 | 0.0 | 0.0 | 0.00 | 0.00 | 0.00 | 40 | 1023.3 |
| 20260502182940 | 67 | 359 | 0.0 | 0.0 | 0.00 | 0.00 | 0.00 | 41 | 1023.3 |
| 20260502182440 | 67 | 359 | 0.0 | 0.0 | 0.00 | 0.00 | 0.00 | 41 | 1023.3 |
| 20260502181937 | 67 | 359 | 0.0 | 0.0 | 0.00 | 0.00 | 0.00 | 41 | 1023.4 |
| 20260502181440 | 68 | 359 | 0.0 | 0.0 | 0.00 | 0.00 | 0.00 | 42 | 1023.4 |
| 20260502180940 | 68 | 359 | 0.0 | 0.0 | 0.00 | 0.00 | 0.00 | 40 | 1023.5 |
| 20260502180437 | 68 | 224 | 0.0 | 0.0 | 0.00 | 0.00 | 0.00 | 39 | 1023.5 |
| 20260502170443 | 70 | 214 | 0.0 | 0.0 | 0.00 | 0.00 | 0.00 | 36 | 1023.5 |
| 20260502163937 | 70 | 208 | 0.0 | 0.0 | 0.00 | 0.00 | 0.00 | 40 | 1023.7 |
| 20260502163440 | 70 | 204 | 0.0 | 0.0 | 0.00 | 0.00 | 0.00 | 38 | 1023.7 |
| 20260502162937 | 70 | 248 | 0.0 | 0.0 | 0.00 | 0.00 | 0.00 | 41 | 1023.7 |
| 20260502162437 | 70 | 216 | 0.0 | 0.0 | 0.00 | 0.00 | 0.00 | 42 | 1023.8 |
| 20260502161940 | 70 | 214 | 0.0 | 0.0 | 0.00 | 0.00 | 0.00 | 39 | 1023.9 |
| 20260502161446 | 70 | 189 | 0.0 | 0.0 | 0.00 | 0.00 | 0.00 | 39 | 1023.9 |
| 20260502160937 | 70 | 269 | 0.0 | 0.0 | 0.00 | 0.00 | 0.00 | 43 | 1024.0 |
| 20260502160437 | 70 | 201 | 0.0 | 0.0 | 0.00 | 0.00 | 0.00 | 42 | 1024.0 |
| 20260502151440 | 69 | 216 | 0.0 | 0.0 | 0.00 | 0.00 | 0.00 | 45 | 1024.5 |
| 20260502150943 | 69 | 208 | 0.0 | 0.0 | 0.00 | 0.00 | 0.00 | 46 | 1024.6 |
| 20260502150443 | 70 | 222 | 0.0 | 0.0 | 0.00 | 0.00 | 0.00 | 45 | 1024.6 |
| 20260502130441 | 70 | 195 | 0.0 | 0.0 | 0.00 | 0.00 | 0.00 | 43 | 1025.9 |
| 20260502123440 | 69 | 208 | 0.0 | 0.0 | 0.00 | 0.00 | 0.00 | 44 | 1026.0 |
| 20260502122940 | 69 | 252 | 0.0 | 0.0 | 0.00 | 0.00 | 0.00 | 43 | 1026.1 |
| 20260502122437 | 69 | 197 | 0.0 | 0.0 | 0.00 | 0.00 | 0.00 | 41 | 1026.1 |
| 20260502121941 | 69 | 217 | 0.0 | 0.0 | 0.00 | 0.00 | 0.00 | 38 | 1026.2 |
| 20260502121440 | 69 | 226 | 0.0 | 0.0 | 0.00 | 0.00 | 0.00 | 46 | 1026.1 |
| 20260502120944 | 69 | 210 | 0.0 | 0.0 | 0.00 | 0.00 | 0.00 | 43 | 1026.2 |
| 20260502120437 | 69 | 226 | 0.0 | 0.0 | 0.00 | 0.00 | 0.00 | 44 | 1026.3 |
| 20260502115441 | 69 | 206 | 0.0 | 0.0 | 0.00 | 0.00 | 0.00 | 42 | 1026.3 |
| 20260502114938 | 68 | 225 | 0.0 | 0.0 | 0.00 | 0.00 | 0.00 | 42 | 1026.4 |
| 20260502114444 | 68 | 359 | 0.0 | 0.0 | 0.00 | 0.00 | 0.00 | 40 | 1026.5 |
| 20260502113941 | 69 | 220 | 0.0 | 0.0 | 0.00 | 0.00 | 0.00 | 36 | 1026.5 |
| 20260502113441 | 69 | 218 | 0.0 | 0.0 | 0.00 | 0.00 | 0.00 | 39 | 1026.5 |
| 20260502112938 | 69 | 213 | 0.0 | 0.0 | 0.00 | 0.00 | 0.00 | 39 | 1026.6 |
| 20260502112438 | 69 | 359 | 0.0 | 0.0 | 0.00 | 0.00 | 0.00 | 41 | 1026.7 |
| 20260502111944 | 69 | 359 | 0.0 | 0.0 | 0.00 | 0.00 | 0.00 | 42 | 1026.8 |
| 20260502111441 | 69 | 190 | 0.0 | 0.0 | 0.00 | 0.00 | 0.00 | 44 | 1026.8 |
| 20260502110938 | 69 | 240 | 0.0 | 0.0 | 0.00 | 0.00 | 0.00 | 42 | 1026.9 |
| 20260502110441 | 69 | 241 | 0.0 | 0.0 | 0.00 | 0.00 | 0.00 | 43 | 1026.9 |
| 20260502105938 | 69 | 359 | 0.0 | 0.0 | 0.00 | 0.00 | 0.00 | 39 | 1027.0 |
| 20260502105438 | 69 | 244 | 0.0 | 0.0 | 0.00 | 0.00 | 0.00 | 41 | 1027.1 |
| 20260502104941 | 69 | 359 | 0.0 | 0.0 | 0.00 | 0.00 | 0.00 | 42 | 1027.1 |
| 20260502104438 | 69 | 359 | 0.0 | 0.0 | 0.00 | 0.00 | 0.00 | 41 | 1027.1 |
| 20260502103944 | 69 | 359 | 0.0 | 0.0 | 0.00 | 0.00 | 0.00 | 38 | 1027.1 |
| 20260502103444 | 69 | 359 | 0.0 | 0.0 | 0.00 | 0.00 | 0.00 | 37 | 1027.2 |
| 20260502102938 | 69 | 212 | 0.0 | 0.0 | 0.00 | 0.00 | 0.00 | 36 | 1027.2 |
| 20260502102438 | 69 | 218 | 0.0 | 0.0 | 0.00 | 0.00 | 0.00 | 33 | 1027.2 |
| 20260502101438 | 69 | 359 | 0.0 | 0.0 | 0.00 | 0.00 | 0.00 | 33 | 1027.4 |
| 20260502100938 | 69 | 207 | 0.0 | 0.0 | 0.00 | 0.00 | 0.00 | 33 | 1027.4 |
| 20260502100441 | 69 | 187 | 0.0 | 0.0 | 0.00 | 0.00 | 0.00 | 34 | 1027.6 |
| 20260502091447 | 69 | 218 | 0.0 | 0.0 | 0.00 | 0.00 | 0.00 | 35 | 1028.1 |
| 20260502090938 | 69 | 239 | 0.0 | 0.0 | 0.00 | 0.00 | 0.00 | 34 | 1028.0 |
| 20260502090438 | 69 | 222 | 0.0 | 0.0 | 0.00 | 0.00 | 0.00 | 35 | 1028.1 |
| 20260502071441 | 68 | 135 | 0.0 | 0.0 | 0.00 | 0.00 | 0.00 | 43 | 1028.1 |
| 20260502070938 | 68 | 135 | 0.0 | 0.0 | 0.00 | 0.00 | 0.00 | 44 | 1028.1 |
| 20260502070444 | 68 | 63 | 0.0 | 0.0 | 0.00 | 0.00 | 0.00 | 44 | 1028.0 |
| 20260502065938 | 67 | 63 | 0.0 | 0.0 | 0.00 | 0.00 | 0.00 | 47 | 1028.0 |
| 20260502065438 | 67 | 63 | 0.0 | 0.0 | 0.00 | 0.00 | 0.00 | 47 | 1028.0 |
| 20260502064944 | 67 | 73 | 0.0 | 0.0 | 0.00 | 0.00 | 0.00 | 47 | 1028.0 |
| 20260502064438 | 67 | 37 | 0.0 | 0.0 | 0.00 | 0.00 | 0.00 | 48 | 1028.0 |
| 20260502063938 | 66 | 37 | 0.0 | 0.0 | 0.00 | 0.00 | 0.00 | 49 | 1028.0 |
| 20260502063441 | 65 | 42 | 0.0 | 0.0 | 0.00 | 0.00 | 0.00 | 49 | 1028.0 |
| 20260502062938 | 64 | 37 | 0.0 | 0.0 | 0.00 | 0.00 | 0.00 | 50 | 1028.0 |
| 20260502062441 | 64 | 51 | 0.0 | 0.0 | 0.00 | 0.00 | 0.00 | 50 | 1028.0 |
| 20260502061944 | 64 | 8 | 0.0 | 0.0 | 0.00 | 0.00 | 0.00 | 50 | 1028.0 |
| 20260502060941 | 63 | 25 | 0.0 | 0.0 | 0.00 | 0.00 | 0.00 | 50 | 1028.0 |
| 20260502060438 | 63 | 359 | 0.0 | 0.0 | 0.00 | 0.00 | 0.00 | 49 | 1028.0 |
| 20260502055941 | 62 | 359 | 0.0 | 0.0 | 0.00 | 0.00 | 0.00 | 50 | 1028.0 |
| 20260502055441 | 62 | 359 | 0.0 | 0.0 | 0.00 | 0.00 | 0.00 | 51 | 1028.0 |
| 20260502054938 | 61 | 359 | 0.0 | 0.0 | 0.00 | 0.00 | 0.00 | 52 | 1028.1 |
| 20260502054438 | 61 | 359 | 0.0 | 0.0 | 0.00 | 0.00 | 0.00 | 51 | 1028.0 |
| 20260502053941 | 61 | 359 | 0.0 | 0.0 | 0.00 | 0.00 | 0.00 | 52 | 1028.0 |
| 20260502053438 | 61 | 359 | 0.0 | 0.0 | 0.00 | 0.00 | 0.00 | 52 | 1028.0 |
| 20260502052944 | 61 | 359 | 0.0 | 0.0 | 0.00 | 0.00 | 0.00 | 52 | 1028.0 |
| 20260502052439 | 61 | 359 | 0.0 | 0.0 | 0.00 | 0.00 | 0.00 | 51 | 1028.0 |
| 20260502051938 | 61 | 359 | 0.0 | 0.0 | 0.00 | 0.00 | 0.00 | 50 | 1028.0 |
| 20260502051441 | 61 | 359 | 0.0 | 0.0 | 0.00 | 0.00 | 0.00 | 50 | 1027.9 |
| 20260502050944 | 61 | 359 | 0.0 | 0.0 | 0.00 | 0.00 | 0.00 | 50 | 1027.9 |
| 20260502050438 | 61 | 359 | 0.0 | 0.0 | 0.00 | 0.00 | 0.00 | 50 | 1027.9 |
| 20260502045938 | 61 | 359 | 0.0 | 0.0 | 0.00 | 0.00 | 0.00 | 50 | 1027.9 |
| 20260502045438 | 61 | 359 | 0.0 | 0.0 | 0.00 | 0.00 | 0.00 | 50 | 1027.9 |
| 20260502044947 | 61 | 359 | 0.0 | 0.0 | 0.00 | 0.00 | 0.00 | 50 | 1027.9 |
| 20260502044444 | 61 | 359 | 0.0 | 0.0 | 0.00 | 0.00 | 0.00 | 50 | 1027.9 |
| 20260502043944 | 61 | 359 | 0.0 | 0.0 | 0.00 | 0.00 | 0.00 | 49 | 1027.8 |
| 20260502043441 | 60 | 359 | 0.0 | 0.0 | 0.00 | 0.00 | 0.00 | 49 | 1027.8 |
| 20260502042944 | 60 | 359 | 0.0 | 0.0 | 0.00 | 0.00 | 0.00 | 50 | 1027.9 |
| 20260502042444 | 60 | 359 | 0.0 | 0.0 | 0.00 | 0.00 | 0.00 | 49 | 1027.8 |
| 20260502041938 | 61 | 359 | 0.0 | 0.0 | 0.00 | 0.00 | 0.00 | 50 | 1027.8 |
| 20260502041438 | 61 | 359 | 0.0 | 0.0 | 0.00 | 0.00 | 0.00 | 49 | 1027.8 |
| 20260502040938 | 61 | 359 | 0.0 | 0.0 | 0.00 | 0.00 | 0.00 | 49 | 1027.7 |
| 20260502040441 | 61 | 359 | 0.0 | 0.0 | 0.00 | 0.00 | 0.00 | 49 | 1027.7 |
| 20260502035941 | 61 | 359 | 0.0 | 0.0 | 0.00 | 0.00 | 0.00 | 50 | 1027.8 |
| 20260502035438 | 61 | 359 | 0.0 | 0.0 | 0.00 | 0.00 | 0.00 | 50 | 1027.8 |
| 20260502034941 | 60 | 359 | 0.0 | 0.0 | 0.00 | 0.00 | 0.00 | 50 | 1027.7 |
| 20260502034441 | 60 | 359 | 0.0 | 0.0 | 0.00 | 0.00 | 0.00 | 50 | 1027.7 |
| 20260502033938 | 60 | 359 | 0.0 | 0.0 | 0.00 | 0.00 | 0.00 | 50 | 1027.6 |
| 20260502033444 | 60 | 359 | 0.0 | 0.0 | 0.00 | 0.00 | 0.00 | 50 | 1027.6 |
| 20260502032938 | 60 | 359 | 0.0 | 0.0 | 0.00 | 0.00 | 0.00 | 50 | 1027.6 |
| 20260502032438 | 60 | 359 | 0.0 | 0.0 | 0.00 | 0.00 | 0.00 | 50 | 1027.6 |
| 20260502031944 | 60 | 359 | 0.0 | 0.0 | 0.00 | 0.00 | 0.00 | 50 | 1027.7 |
| 20260502031441 | 60 | 359 | 0.0 | 0.0 | 0.00 | 0.00 | 0.00 | 50 | 1027.7 |
| 20260502030941 | 60 | 359 | 0.0 | 0.0 | 0.00 | 0.00 | 0.00 | 50 | 1027.7 |
| 20260502030438 | 60 | 359 | 0.0 | 0.0 | 0.00 | 0.00 | 0.00 | 50 | 1027.8 |
| 20260502025941 | 60 | 359 | 0.0 | 0.0 | 0.00 | 0.00 | 0.00 | 50 | 1027.8 |
| 20260502025438 | 61 | 359 | 0.0 | 0.0 | 0.00 | 0.00 | 0.00 | 49 | 1027.8 |
| 20260502024941 | 61 | 359 | 0.0 | 0.0 | 0.00 | 0.00 | 0.00 | 49 | 1027.7 |
| 20260502024438 | 61 | 359 | 0.0 | 0.0 | 0.00 | 0.00 | 0.00 | 50 | 1027.8 |
| 20260502023938 | 61 | 359 | 0.0 | 0.0 | 0.00 | 0.00 | 0.00 | 50 | 1027.7 |
| 20260502023438 | 61 | 359 | 0.0 | 0.0 | 0.00 | 0.00 | 0.00 | 50 | 1027.8 |
| 20260502022938 | 61 | 359 | 0.0 | 0.0 | 0.00 | 0.00 | 0.00 | 50 | 1027.8 |
| 20260502022438 | 61 | 359 | 0.0 | 0.0 | 0.00 | 0.00 | 0.00 | 50 | 1027.8 |
| 20260502021941 | 61 | 359 | 0.0 | 0.0 | 0.00 | 0.00 | 0.00 | 50 | 1027.8 |
| 20260502021438 | 61 | 359 | 0.0 | 0.0 | 0.00 | 0.00 | 0.00 | 49 | 1027.8 |
| 20260502020941 | 61 | 359 | 0.0 | 0.0 | 0.00 | 0.00 | 0.00 | 51 | 1027.8 |
| 20260502020437 | 61 | 359 | 0.0 | 0.0 | 0.00 | 0.00 | 0.00 | 51 | 1027.8 |
| 20260502015937 | 61 | 359 | 0.0 | 0.0 | 0.00 | 0.00 | 0.00 | 51 | 1027.8 |
| 20260502015437 | 61 | 359 | 0.0 | 0.0 | 0.00 | 0.00 | 0.00 | 52 | 1027.8 |
| 20260502014940 | 61 | 359 | 0.0 | 0.0 | 0.00 | 0.00 | 0.00 | 52 | 1027.8 |
| 20260502014440 | 61 | 359 | 0.0 | 0.0 | 0.00 | 0.00 | 0.00 | 50 | 1027.8 |
| 20260502013940 | 61 | 359 | 0.0 | 0.0 | 0.00 | 0.00 | 0.00 | 51 | 1027.8 |
| 20260502013437 | 61 | 359 | 0.0 | 0.0 | 0.00 | 0.00 | 0.00 | 52 | 1027.7 |
| 20260502012937 | 61 | 359 | 0.0 | 0.0 | 0.00 | 0.00 | 0.00 | 52 | 1027.8 |
| 20260502012440 | 62 | 359 | 0.0 | 0.0 | 0.00 | 0.00 | 0.00 | 53 | 1027.8 |
| 20260502011940 | 62 | 359 | 0.0 | 0.0 | 0.00 | 0.00 | 0.00 | 53 | 1027.8 |
| 20260502011437 | 62 | 359 | 0.0 | 0.0 | 0.00 | 0.00 | 0.00 | 53 | 1027.8 |
| 20260502010943 | 62 | 359 | 0.0 | 0.0 | 0.00 | 0.00 | 0.00 | 52 | 1027.8 |
| 20260502010437 | 62 | 359 | 0.0 | 0.0 | 0.00 | 0.00 | 0.00 | 51 | 1027.8 |
| 20260502005937 | 62 | 359 | 0.0 | 0.0 | 0.00 | 0.00 | 0.00 | 50 | 1027.8 |
| 20260502005443 | 62 | 359 | 0.0 | 0.0 | 0.00 | 0.00 | 0.00 | 50 | 1027.8 |
| 20260502004940 | 62 | 359 | 0.0 | 0.0 | 0.00 | 0.00 | 0.00 | 50 | 1027.8 |
| 20260502004440 | 62 | 359 | 0.0 | 0.0 | 0.00 | 0.00 | 0.00 | 50 | 1027.8 |
| 20260502003937 | 62 | 359 | 0.0 | 0.0 | 0.00 | 0.00 | 0.00 | 50 | 1027.8 |
| 20260502003440 | 62 | 359 | 0.0 | 0.0 | 0.00 | 0.00 | 0.00 | 50 | 1027.7 |
| 20260502002940 | 62 | 359 | 0.0 | 0.0 | 0.00 | 0.00 | 0.00 | 50 | 1027.8 |
| 20260502002437 | 62 | 359 | 0.0 | 0.0 | 0.00 | 0.00 | 0.00 | 49 | 1027.8 |